Wind_Speed
50 50 48 47 44 42 41 39 37 32 29 31 33 35 36 35 34 33 31 31 32 34 36 38 40 43 44 46 49 51 53 55 57 61 67 72 71 68
51 50 48 47 44 41 39 37 36 32 27 26 30 33 34 33 31 29 27 27 27 28 29 30 31 33 36 39 43 47 51 53 56 57 61 68 72 71
51 49 47 45 43 41 39 37 35 32 26 22 25 27 28 28 28 26 24 23 24 23 23 23 24 27 30 33 37 40 45 50 54 56 59 63 69 72
49 47 45 43 42 40 38 36 33 30 24 20 21 23 24 24 24 23 22 22 21 20 20 21 23 24 27 30 33 36 40 46 51 54 57 60 65 71
47 45 42 41 39 37 36 33 31 28 23 19 20 22 22 21 20 20 20 20 20 20 19 20 22 24 27 30 32 35 38 42 46 50 55 59 63 67
44 41 39 38 36 34 32 30 28 25 22 20 20 21 21 20 19 18 18 19 19 18 19 20 22 25 28 30 32 34 36 39 42 46 51 56 61 64
42 39 37 36 33 30 28 26 24 22 21 20 19 19 19 19 17 15 15 15 15 15 17 19 21 23 21 21 21 25 30 34 38 43 47 52 57 61
39 37 35 32 29 26 24 22 21 19 18 17 16 16 16 15 14 12 11 11 10 11 13 15 16 13 10 8 8 15 22 27 33 39 43 49 55 59
36 33 31 28 25 22 20 18 17 16 15 13 12 11 11 10 8 7 7 6 5 7 9 10 7 5 5 3 7 12 17 23 29 35 42 50 55 58
30 28 27 24 22 19 17 15 13 12 11 10 10 9 8 6 5 5 5 4 1 4 6 5 6 9 10 10 12 16 20 24 30 38 46 52 53 54
25 25 23 20 18 15 14 13 11 10 10 9 9 8 7 6 6 7 6 4 3 3 4 7 11 13 13 16 19 23 29 34 40 46 49 50 49 48
23 22 20 17 13 11 11 11 10 10 9 9 9 8 8 8 9 9 8 6 5 5 6 9 12 14 16 20 26 31 36 41 47 50 49 48 45 43
20 19 16 12 8 8 10 11 10 9 9 9 10 11 11 12 13 11 9 8 7 7 9 12 14 18 20 24 29 32 36 39 42 44 45 46 44 41
17 14 10 6 5 9 11 11 10 10 10 12 14 15 16 16 15 12 10 9 9 11 13 15 16 20 22 25 30 33 36 38 41 43 42 41 39 37
12 8 4 3 8 12 14 14 13 13 15 17 19 19 18 17 15 13 10 10 12 15 17 18 20 23 25 26 30 33 35 36 39 40 39 37 34 31
4 1 2 6 11 15 17 17 16 17 19 21 20 19 17 15 14 13 12 13 17 19 20 20 22 24 25 24 26 28 29 31 33 34 33 32 30 27
3 4 6 9 14 18 20 19 18 19 21 21 19 17 15 15 14 14 15 18 21 22 21 22 24 26 26 24 23 24 25 27 28 30 29 27 26 24
7 8 9 12 16 20 22 21 20 20 20 19 18 17 16 16 16 17 19 22 25 25 24 24 24 25 25 26 26 25 25 25 25 26 27 25 23 21
10 12 12 14 18 22 23 23 21 20 19 18 17 17 17 18 18 19 22 26 28 27 27 27 27 26 23 22 24 26 26 25 23 22 22 23 23 23
11 13 14 15 18 22 24 23 22 20 19 18 18 19 18 19 19 20 24 27 29 28 26 24 23 24 24 22 19 18 19 22 23 22 22 22 24 25
10 13 15 16 19 22 23 23 22 21 20 19 19 19 19 19 20 22 24 27 28 27 25 22 20 19 19 20 19 17 16 17 21 25 26 26 26 25
11 13 16 17 19 21 23 23 23 22 20 19 19 19 19 19 20 22 23 24 25 25 23 21 19 18 17 18 19 19 19 20 22 23 25 25 26 25
11 14 16 17 18 20 22 23 23 22 20 19 19 19 19 19 20 20 20 21 21 21 19 18 16 15 15 16 18 21 23 25 25 25 26 26 25 23
Wind_Direction
306 300 295 292 290 291 293 294 293 289 282 273 268 266 267 268 268 269 269 272 273 273 270 266 261 256 253 250 247 244 239 237 235 233 230 225 220 217
307 302 295 290 286 286 289 292 294 293 288 275 266 265 267 268 270 270 270 273 275 273 271 268 263 257 253 250 246 242 237 235 233 230 228 225 219 214
307 302 296 290 285 282 284 288 292 293 290 277 265 262 263 267 269 269 268 269 272 272 271 268 264 260 256 252 249 243 237 233 231 228 225 223 219 213
306 302 297 292 286 281 280 283 286 290 287 273 263 261 265 269 269 266 264 264 267 269 272 271 268 263 259 255 250 244 238 232 227 225 223 220 217 212
304 301 298 293 287 281 278 278 280 283 280 269 261 264 269 273 271 266 261 261 266 271 275 278 275 269 264 259 251 244 237 231 226 222 219 215 214 211
303 302 300 295 289 281 276 275 275 277 274 267 262 265 269 272 272 267 261 261 268 276 281 286 285 282 278 267 255 243 234 227 222 218 213 210 209 207
302 302 301 296 290 281 274 271 269 269 269 267 265 264 266 269 269 266 261 263 272 279 289 295 298 296 288 278 257 233 222 216 212 208 205 203 201 200
302 301 301 297 290 282 273 266 260 259 262 266 266 263 263 265 262 258 255 260 270 287 302 311 315 316 308 285 231 206 201 200 199 198 196 191 189 191
301 301 299 295 288 281 272 261 251 250 253 258 257 259 261 259 250 243 242 245 265 303 321 332 344 37 36 93 147 161 173 180 181 182 180 176 177 182
301 302 300 293 286 278 267 254 243 239 238 244 247 252 253 240 217 201 198 200 282 345 349 19 87 95 75 93 119 137 147 157 163 165 164 164 168 175
302 305 303 293 283 272 255 239 227 225 228 234 237 239 227 200 173 167 161 141 85 42 51 95 116 113 93 95 111 125 136 143 148 149 150 155 162 170
303 305 303 294 277 259 234 215 208 213 219 223 221 209 189 167 155 152 141 120 102 90 96 116 130 130 114 108 114 123 131 136 139 141 145 151 159 167
305 304 301 289 261 225 200 192 195 202 204 199 189 178 165 154 150 146 133 121 117 113 115 121 131 135 126 122 124 126 130 134 138 143 148 154 160 167
307 303 298 273 201 176 171 170 175 178 176 169 161 153 150 149 150 147 135 126 128 127 127 126 127 132 132 128 132 134 136 139 142 146 150 154 158 162
311 301 284 187 158 155 154 154 155 154 150 147 145 142 144 148 152 149 138 133 136 136 133 129 126 127 129 131 133 137 141 142 145 148 152 154 158 163
327 305 144 141 146 148 148 148 147 145 143 142 142 143 147 152 154 149 141 138 138 137 134 132 130 128 128 132 136 138 143 149 153 158 162 166 170 174
70 108 125 135 143 146 147 146 145 144 143 144 145 148 153 157 154 147 141 141 140 136 134 135 136 132 131 134 142 150 156 161 166 171 174 177 180 183
82 99 112 129 141 146 147 145 144 144 143 144 147 151 154 154 150 144 141 143 142 138 135 134 133 133 137 143 148 152 156 162 169 174 177 174 173 173
88 92 105 125 140 147 148 148 148 149 148 147 150 150 150 149 146 142 142 145 145 142 140 137 135 135 137 141 145 148 147 149 154 158 163 163 162 164
95 95 104 124 139 147 149 150 152 154 154 152 151 150 148 146 143 140 143 147 147 147 146 143 141 140 139 140 143 149 152 151 152 154 157 161 163 164
105 106 105 120 136 146 151 152 153 154 154 153 153 152 149 144 141 140 143 148 150 151 152 152 152 151 150 148 149 154 160 165 165 164 164 166 166 165
110 115 109 117 132 142 148 150 152 153 153 152 151 151 149 145 141 141 144 150 154 156 158 160 162 163 164 163 161 164 167 169 170 170 169 169 168 166
113 119 117 119 129 140 147 151 154 155 155 153 151 151 150 147 145 144 146 150 156 160 163 165 168 172 176 179 176 173 172 172 172 173 173 172 173 173
Height
5614 5607 5602 5597 5592 5588 5583 5578 5575 5573 5572 5568 5565 5564 5564 5565 5566 5567 5568 5568 5568 5566 5564 5563 5562 5563 5565 5569 5573 5578 5584 5591 5599 5608 5619 5632 5647 5662
5602 5595 5589 5585 5581 5577 5573 5569 5565 5562 5562 5560 5557 5555 5555 5556 5556 5557 5558 5558 5558 5556 5553 5551 5550 5550 5551 5553 5556 5561 5567 5574 5583 5592 5603 5616 5631 5646
5589 5582 5577 5572 5568 5565 5563 5560 5557 5553 5552 5551 5549 5548 5548 5548 5549 5549 5550 5550 5549 5547 5545 5543 5541 5540 5540 5541 5543 5546 5551 5559 5567 5577 5588 5600 5615 5631
5576 5569 5564 5559 5556 5553 5552 5550 5548 5546 5544 5544 5542 5541 5541 5542 5542 5542 5542 5542 5541 5539 5537 5535 5533 5532 5531 5531 5532 5534 5538 5544 5551 5561 5573 5587 5602 5616
5564 5557 5552 5547 5544 5542 5541 5540 5540 5538 5537 5537 5536 5535 5535 5535 5536 5536 5536 5535 5534 5533 5531 5529 5526 5524 5522 5520 5520 5521 5525 5531 5538 5547 5559 5573 5588 5604
5551 5546 5540 5536 5532 5531 5530 5530 5531 5531 5530 5530 5530 5530 5530 5530 5530 5530 5530 5529 5529 5527 5525 5523 5519 5515 5511 5508 5507 5508 5512 5518 5526 5535 5547 5560 5577 5595
5539 5534 5530 5525 5522 5520 5521 5522 5523 5523 5523 5523 5524 5524 5524 5524 5524 5524 5524 5524 5524 5522 5520 5517 5512 5507 5501 5496 5494 5495 5500 5507 5516 5526 5538 5551 5569 5588
5529 5524 5519 5515 5513 5511 5512 5514 5515 5516 5517 5517 5518 5518 5519 5519 5519 5520 5520 5520 5520 5519 5516 5512 5507 5501 5495 5490 5489 5491 5495 5502 5510 5521 5532 5547 5564 5584
5519 5514 5510 5507 5505 5504 5505 5506 5508 5510 5511 5513 5514 5514 5515 5515 5516 5516 5517 5518 5518 5516 5514 5510 5505 5501 5496 5492 5490 5492 5495 5501 5509 5519 5532 5547 5565 5584
5509 5505 5502 5499 5497 5497 5498 5500 5503 5505 5507 5509 5510 5511 5512 5512 5513 5515 5516 5517 5516 5515 5513 5510 5507 5504 5501 5498 5495 5496 5499 5505 5513 5524 5536 5551 5569 5588
5500 5497 5494 5492 5491 5491 5493 5495 5498 5501 5503 5505 5507 5508 5509 5511 5513 5514 5516 5517 5516 5515 5514 5512 5511 5510 5509 5507 5504 5504 5507 5512 5521 5532 5545 5561 5577 5592
5493 5490 5488 5486 5485 5486 5489 5492 5495 5497 5500 5502 5504 5506 5508 5510 5513 5515 5517 5517 5517 5517 5516 5516 5516 5517 5517 5516 5515 5516 5519 5523 5531 5541 5554 5569 5584 5598
5487 5484 5482 5481 5481 5483 5486 5489 5492 5495 5497 5500 5502 5505 5508 5511 5514 5516 5518 5519 5519 5519 5519 5520 5521 5522 5525 5526 5526 5528 5533 5538 5545 5554 5564 5577 5591 5604
5481 5479 5478 5477 5478 5481 5484 5487 5490 5493 5495 5498 5502 5505 5508 5512 5515 5517 5519 5520 5521 5522 5523 5524 5526 5528 5531 5535 5538 5541 5546 5552 5559 5568 5577 5587 5596 5606
5477 5476 5475 5476 5477 5480 5484 5487 5490 5493 5496 5500 5503 5507 5510 5513 5517 5519 5521 5522 5523 5525 5527 5529 5532 5534 5537 5542 5547 5552 5557 5563 5570 5578 5586 5594 5602 5609
5475 5475 5475 5476 5478 5481 5485 5488 5491 5494 5498 5502 5506 5509 5513 5516 5519 5521 5523 5524 5527 5529 5532 5534 5537 5540 5544 5549 5555 5560 5566 5572 5578 5584 5591 5598 5604 5611
5475 5476 5476 5477 5479 5482 5486 5490 5494 5497 5501 5504 5508 5512 5515 5518 5521 5523 5525 5527 5531 5534 5537 5540 5543 5545 5549 5555 5560 5566 5571 5577 5582 5589 5595 5601 5606 5611
5478 5478 5478 5479 5481 5485 5489 5493 5497 5501 5504 5508 5511 5514 5517 5520 5523 5525 5528 5531 5535 5538 5542 5546 5549 5553 5557 5560 5565 5570 5575 5581 5586 5591 5596 5602 5607 5611
5482 5481 5481 5482 5484 5488 5492 5496 5500 5504 5507 5511 5514 5517 5521 5523 5526 5529 5531 5535 5539 5543 5547 5551 5554 5558 5563 5568 5571 5574 5579 5584 5589 5593 5598 5602 5607 5613
5485 5485 5485 5486 5488 5491 5495 5499 5503 5507 5510 5514 5517 5521 5524 5527 5530 5532 5535 5539 5543 5548 5552 5556 5560 5563 5567 5572 5576 5580 5583 5586 5590 5595 5600 5604 5609 5614
5489 5488 5489 5490 5492 5495 5499 5502 5506 5510 5513 5516 5520 5524 5527 5530 5533 5537 5540 5544 5548 5552 5557 5561 5564 5568 5571 5575 5579 5582 5586 5589 5592 5596 5601 5606 5611 5615
5492 5492 5493 5494 5496 5499 5502 5506 5509 5513 5516 5520 5523 5527 5530 5534 5537 5540 5544 5548 5552 5556 5560 5564 5567 5570 5574 5577 5580 5584 5587 5592 5596 5600 5604 5609 5613 5616
5495 5496 5497 5498 5500 5503 5506 5510 5513 5517 5520 5524 5527 5530 5534 5537 5541 5544 5548 5551 5555 5559 5562 5566 5569 5573 5575 5578 5581 5584 5588 5592 5597 5602 5606 5610 5614 5618